Le nostre stazioni meteo in Italia

Pubblicità
Il mio iltempo24.it
Capo Frasca, Italia (16539): Temperatura & dewpoint: 16.06.2017 22:00:00 - 22.06.2017 22:00:00 (CEST)Capo Frasca, Italia (16539): velocità del vento: 16.06.2017 22:00:00 - 22.06.2017 22:00:00 (CEST)Capo Frasca, Italia (16539): direzione del vento: 16.06.2017 22:00:00 - 22.06.2017 22:00:00 (CEST)Capo Frasca, Italia (16539): reduced air pressure: 16.06.2017 22:00:00 - 22.06.2017 22:00:00 (CEST)Capo Frasca, Italia (16539): visibility: 16.06.2017 22:00:00 - 22.06.2017 22:00:00 (CEST)
Data & Tempo tt [°C] td [°C] ff [km/h] ff [kn] dd ppp [hPa] vv [km]
22.06.2017 22:00:00 - - - - - - -
22.06.2017 21:00:00 - - - - - - -
22.06.2017 20:00:00 26,6 26,3 15 8 O 1017,9 20
22.06.2017 19:00:00 - - - - - - -
22.06.2017 18:00:00 - - - - - - -
22.06.2017 17:00:00 27,8 27,5 16 9 O 1017,9 20
22.06.2017 16:00:00 - - - - - - -
22.06.2017 15:00:00 - - - - - - -
22.06.2017 14:00:00 27,6 27,3 21 11 O 1018,3 20
22.06.2017 13:00:00 - - - - - - -
22.06.2017 12:00:00 - - - - - - -
22.06.2017 11:00:00 29,8 23,5 9 5 ESE 1017,7 20
22.06.2017 10:00:00 - - - - - - -
22.06.2017 09:00:00 - - - - - - -
22.06.2017 08:00:00 24,0 23,2 16 9 ESE 1017,0 15
22.06.2017 07:00:00 - - - - - - -
22.06.2017 06:00:00 - - - - - - -
22.06.2017 05:00:00 - - - - - - -
22.06.2017 04:00:00 - - - - - - -
22.06.2017 03:00:00 - - - - - - -
22.06.2017 02:00:00 - - - - - - -
22.06.2017 01:00:00 - - - - - - -
22.06.2017 00:00:00 - - - - - - -
21.06.2017 23:00:00 - - - - - - -
21.06.2017 22:00:00 - - - - - - -
21.06.2017 21:00:00 - - - - - - -
21.06.2017 20:00:00 27,6 24,9 11 6 O 1015,3 25
21.06.2017 19:00:00 - - - - - - -
21.06.2017 18:00:00 - - - - - - -
21.06.2017 17:00:00 29,4 26,2 16 9 NO 1015,2 25
21.06.2017 16:00:00 - - - - - - -
21.06.2017 15:00:00 - - - - - - -
21.06.2017 14:00:00 29,6 21,6 26 14 NO 1015,8 25
21.06.2017 13:00:00 - - - - - - -
21.06.2017 12:00:00 - - - - - - -
21.06.2017 11:00:00 29,0 24,3 9 5 NE 1015,8 20
21.06.2017 10:00:00 - - - - - - -
21.06.2017 09:00:00 - - - - - - -
21.06.2017 08:00:00 23,8 22,8 18 10 ESE 1016,0 20
21.06.2017 07:00:00 - - - - - - -
21.06.2017 06:00:00 - - - - - - -
21.06.2017 05:00:00 - - - - - - -
21.06.2017 04:00:00 - - - - - - -
21.06.2017 03:00:00 - - - - - - -
21.06.2017 02:00:00 - - - - - - -
21.06.2017 01:00:00 - - - - - - -
21.06.2017 00:00:00 - - - - - - -
20.06.2017 23:00:00 - - - - - - -
20.06.2017 22:00:00 - - - - - - -
20.06.2017 21:00:00 - - - - - - -
20.06.2017 20:00:00 26,4 26,4 13 7 O 1017,7 20
20.06.2017 19:00:00 - - - - - - -
20.06.2017 18:00:00 - - - - - - -
20.06.2017 17:00:00 28,4 25,8 15 8 O 1018,7 25
20.06.2017 16:00:00 - - - - - - -
20.06.2017 15:00:00 - - - - - - -
20.06.2017 14:00:00 27,6 24,5 21 11 O 1019,7 25
20.06.2017 13:00:00 - - - - - - -
20.06.2017 12:00:00 - - - - - - -
20.06.2017 11:00:00 25,4 24,7 15 8 OSO 1020,2 25
20.06.2017 10:00:00 - - - - - - -
20.06.2017 09:00:00 - - - - - - -
20.06.2017 08:00:00 22,6 21,9 8 4 SE 1019,9 20
20.06.2017 07:00:00 - - - - - - -
20.06.2017 06:00:00 - - - - - - -
20.06.2017 05:00:00 - - - - - - -
20.06.2017 04:00:00 - - - - - - -
20.06.2017 03:00:00 - - - - - - -
20.06.2017 02:00:00 - - - - - - -
20.06.2017 01:00:00 - - - - - - -
20.06.2017 00:00:00 - - - - - - -
19.06.2017 23:00:00 - - - - - - -
19.06.2017 22:00:00 - - - - - - -
19.06.2017 21:00:00 - - - - - - -
19.06.2017 20:00:00 26,8 26,5 15 8 O 1019,7 30
19.06.2017 19:00:00 - - - - - - -
19.06.2017 18:00:00 - - - - - - -
19.06.2017 17:00:00 27,4 26,7 18 10 ONO 1019,8 30
19.06.2017 16:00:00 - - - - - - -
19.06.2017 15:00:00 - - - - - - -
19.06.2017 14:00:00 28,0 25,0 18 10 O 1019,8 30
19.06.2017 13:00:00 - - - - - - -
19.06.2017 12:00:00 - - - - - - -
19.06.2017 11:00:00 28,4 19,9 11 6 NNE 1019,8 30
19.06.2017 10:00:00 - - - - - - -
19.06.2017 09:00:00 - - - - - - -
19.06.2017 08:00:00 24,0 21,5 11 6 ESE 1018,1 25
19.06.2017 07:00:00 - - - - - - -
19.06.2017 06:00:00 - - - - - - -
19.06.2017 05:00:00 - - - - - - -
19.06.2017 04:00:00 - - - - - - -
19.06.2017 03:00:00 - - - - - - -
19.06.2017 02:00:00 - - - - - - -
19.06.2017 01:00:00 - - - - - - -
19.06.2017 00:00:00 - - - - - - -
18.06.2017 23:00:00 - - - - - - -
18.06.2017 22:00:00 - - - - - - -
18.06.2017 21:00:00 - - - - - - -
18.06.2017 20:00:00 26,0 25,3 11 6 ONO 1015,5 20
18.06.2017 19:00:00 - - - - - - -
18.06.2017 18:00:00 - - - - - - -
18.06.2017 17:00:00 - - - - - - -
18.06.2017 16:00:00 - - - - - - -
18.06.2017 15:00:00 - - - - - - -
18.06.2017 14:00:00 27,2 26,2 21 11 O 1014,7 20
18.06.2017 13:00:00 - - - - - - -
18.06.2017 12:00:00 - - - - - - -
18.06.2017 11:00:00 - - - - - - -
18.06.2017 10:00:00 - - - - - - -
18.06.2017 09:00:00 - - - - - - -
18.06.2017 08:00:00 22,2 21,4 8 4 ESE 1012,9 10
18.06.2017 07:00:00 - - - - - - -
18.06.2017 06:00:00 - - - - - - -
18.06.2017 05:00:00 - - - - - - -
18.06.2017 04:00:00 - - - - - - -
18.06.2017 03:00:00 - - - - - - -
18.06.2017 02:00:00 - - - - - - -
18.06.2017 01:00:00 - - - - - - -
18.06.2017 00:00:00 - - - - - - -
17.06.2017 23:00:00 - - - - - - -
17.06.2017 22:00:00 - - - - - - -
17.06.2017 21:00:00 - - - - - - -
17.06.2017 20:00:00 24,8 24,6 15 8 O 1011,6 18
17.06.2017 19:00:00 - - - - - - -
17.06.2017 18:00:00 - - - - - - -
17.06.2017 17:00:00 - - - - - - -
17.06.2017 16:00:00 - - - - - - -
17.06.2017 15:00:00 - - - - - - -
17.06.2017 14:00:00 26,4 25,4 21 11 O 1013,7 18
17.06.2017 13:00:00 - - - - - - -
17.06.2017 12:00:00 - - - - - - -
17.06.2017 11:00:00 - - - - - - -
17.06.2017 10:00:00 - - - - - - -
17.06.2017 09:00:00 - - - - - - -
17.06.2017 08:00:00 25,0 24,1 9 5 OSO 1013,8 18
17.06.2017 07:00:00 - - - - - - -
17.06.2017 06:00:00 - - - - - - -
17.06.2017 05:00:00 - - - - - - -
17.06.2017 04:00:00 - - - - - - -
17.06.2017 03:00:00 - - - - - - -
17.06.2017 02:00:00 - - - - - - -
17.06.2017 01:00:00 - - - - - - -
17.06.2017 00:00:00 - - - - - - -
16.06.2017 23:00:00 - - - - - - -
16.06.2017 22:00:00 - - - - - - -

tt = Temperatura
td = dewpoint
ff = velocità del vento
dd = direzione del vento
ppp = reduced air pressure
vv = visibility

Stazioni seguenti

WeatherPro
AMSI
MeteoEarth